Location: Kott?ru
(16.6209°N, 80.6208°E)
Time: 21:06:00
(UTC+00:00)

FENGYUN 3A - Pass Details

Date: 18 September 2020
Orbit: 824 x 836 km, 98.4° (Epoch: 27 October)

Event Time Altitude Azimuth Distance (km) Brightness Sun altitude
Rises 23:21:04 0° 5° (N) 3,359 7.0 -16.4°
Reaches altitude 10° 23:23:27 10° 1° (N) 2,427 6.2 -15.8°
Maximum altitude 23:28:41 55° 284° (WNW) 986 3.7 -14.6°
Drops below altitude 10° 23:33:57 10° 207° (SSW) 2,431 5.8 -13.3°
Sets 23:36:20 0° 203° (SSW) 3,365 6.5 -12.8°
